Location: *
(13.2257°S, 48.7193°W)
Time: 09:45:04
(UTC+00:00)

Meteor 1-24 Rocket - Pass Details

Date: 13 February 2026
Orbit: 789 x 925 km, 81.3° (Epoch: 11 March)

Event Time Altitude Azimuth Distance (km) Brightness Sun altitude
Exits shadow 06:59:57 50° 153° (SSE) 1,006 4.2 -31.4°
Drops below altitude 10° 07:03:55 10° 169° (S) 2,366 6.4 -30.5°
Sets 07:06:18 0° 171° (S) 3,296 7.2 -30.0°
